Mason, MI

3:11 PM EDT on March 29, 2017 (GMT -0400)
Mason Jewett

Weather History for KTEW - December, 2013

Change the Weather History Date:

Monday, December 9, 2013

  Actual Average (KLAN) Record (KLAN)
Temperature  
Mean Temperature 23 °F -  
Max Temperature 28 °F 35 °F 58 °F (1946)
Min Temperature 17 °F 22 °F -17 °F (1864)
Degree Days  
Heating Degree Days 42    
Moisture  
Dew Point 21 °F    
Average Humidity 85    
Maximum Humidity 98    
Minimum Humidity 68    
Precipitation  
Precipitation 0.00 in - - ()
Sea Level Pressure  
Sea Level Pressure 29.95 in    
Wind  
Wind Speed 8 mph (SW)    
Max Wind Speed 16 mph    
Max Gust Speed 26 mph    
Visibility 6 miles    
Events Snow    
Averages and records for this station are not official NWS values.
T = Trace of Precipitation, MM = Missing Value Source: NWS Daily Summary

Daily Weather History Graph

Daily Weather History Graph

Search for Another Location

Airport or City:

Trip Planner

Search our weather history database for the weather conditions in past years. The results will help you decide how hot, cold, wet, or windy it might be!

Date:

Astronomy

Dec. 09, 2013 Rise Set
Actual Time 7:55 AM EST 5:04 PM EST
Civil Twilight 7:24 AM EST 5:36 PM EST
Nautical Twilight 6:48 AM EST 6:11 PM EST
Astronomical Twilight 6:14 AM EST 6:45 PM EST
Moon 12:41 PM EST (12/9) No Moon Set
Length of Visible Light 10h 12m
Length of Day
9h 08m
Waxing Crescent, 51% of the Moon is Illuminated
Dec 9
Waxing Crescent
Dec 17
Full
Dec 25
Last Quarter
Jan 1
New
Jan 7
First Quarter

Hourly Weather History & Observations

Time (EST) Temp. Windchill Dew Point Humidity Pressure Visibility Wind Dir Wind Speed Gust Speed Precip Events Conditions
12:14 AM 27.5 °F 23.6 °F 26.8 °F 97% 29.94 in 1.0 mi SE 3.5 mph - N/A Snow Light Snow
12:33 AM 27.5 °F 23.6 °F 27.0 °F 98% 29.92 in 1.5 mi SSE 3.5 mph - N/A Snow Light Snow
12:54 AM 27.9 °F 21.5 °F 27.1 °F 97% 29.91 in 2.5 mi South 5.8 mph - N/A Snow Light Snow
1:14 AM 28.0 °F 21.7 °F 27.3 °F 97% 29.89 in 5.0 mi SSE 5.8 mph - N/A Snow Light Snow
1:33 AM 27.9 °F 19.1 °F 27.1 °F 97% 29.87 in 4.0 mi South 9.2 mph - N/A   Overcast
1:54 AM 27.5 °F 18.6 °F 26.6 °F 96% 29.86 in 4.0 mi South 9.2 mph - N/A   Overcast
2:13 AM 27.5 °F 21.1 °F 26.2 °F 95% 29.86 in 5.0 mi South 5.8 mph - N/A   Overcast
2:34 AM 27.5 °F 23.6 °F 25.7 °F 93% 29.86 in 10.0 mi South 3.5 mph - N/A   Overcast
2:54 AM 27.5 °F 22.2 °F 25.7 °F 93% 29.87 in 7.0 mi SSW 4.6 mph - N/A   Overcast
3:13 AM 27.5 °F - 25.7 °F 93% 29.87 in 10.0 mi Calm Calm - N/A   Overcast
3:34 AM 27.5 °F 21.1 °F 25.5 °F 92% 29.87 in 10.0 mi SW 5.8 mph - N/A   Overcast
3:54 AM 27.5 °F 18.6 °F 25.3 °F 92% 29.87 in 10.0 mi SW 9.2 mph - N/A   Overcast
4:13 AM 27.5 °F 18.6 °F 25.2 °F 91% 29.86 in 10.0 mi SW 9.2 mph - N/A   Overcast
4:34 AM 27.5 °F 19.3 °F 25.0 °F 90% 29.85 in 10.0 mi WSW 8.1 mph 17.3 mph N/A   Overcast
4:54 AM 27.3 °F 19.1 °F 24.8 °F 90% 29.86 in 10.0 mi WSW 8.1 mph - N/A   Overcast
5:13 AM 27.1 °F 18.9 °F 24.8 °F 91% 29.86 in 10.0 mi WSW 8.1 mph - N/A   Overcast
5:34 AM 27.1 °F 19.7 °F 24.8 °F 91% 29.86 in 7.0 mi SW 6.9 mph - N/A   Overcast
5:54 AM 27.0 °F 18.0 °F 25.2 °F 93% 29.85 in 7.0 mi SW 9.2 mph - N/A   Overcast
6:13 AM 27.0 °F 19.5 °F 25.3 °F 94% 29.85 in 5.0 mi SW 6.9 mph 16.1 mph N/A   Overcast
6:34 AM 27.1 °F 17.5 °F 25.5 °F 94% 29.86 in 5.0 mi SW 10.4 mph - N/A   Overcast
6:54 AM 27.1 °F 16.4 °F 25.5 °F 94% 29.87 in 4.0 mi SW 12.7 mph 17.3 mph N/A   Overcast
7:13 AM 27.1 °F 16.9 °F 25.5 °F 94% 29.87 in 4.0 mi SW 11.5 mph 18.4 mph N/A   Overcast
7:34 AM 27.1 °F 18.2 °F 25.3 °F 93% 29.87 in 5.0 mi SW 9.2 mph - N/A   Overcast
7:53 AM 27.1 °F 16.9 °F 25.2 °F 92% 29.87 in 7.0 mi SW 11.5 mph - N/A   Overcast
8:14 AM 27.1 °F 16.9 °F 24.8 °F 91% 29.89 in 7.0 mi SW 11.5 mph 18.4 mph N/A   Overcast
8:34 AM 27.1 °F 17.5 °F 24.8 °F 91% 29.89 in 7.0 mi WSW 10.4 mph 19.6 mph N/A   Overcast
8:53 AM 27.1 °F 17.5 °F 24.8 °F 91% 29.89 in 5.0 mi SW 10.4 mph 16.1 mph N/A   Overcast
9:14 AM 27.1 °F 16.9 °F 24.6 °F 90% 29.90 in 5.0 mi SW 11.5 mph 18.4 mph N/A Snow Light Snow
9:34 AM 27.1 °F 16.4 °F 24.6 °F 90% 29.91 in 5.0 mi SW 12.7 mph 21.9 mph N/A Snow Light Snow
9:53 AM 27.3 °F 16.6 °F 24.4 °F 89% 29.93 in 4.0 mi WSW 12.7 mph 19.6 mph N/A   Overcast
10:14 AM 27.3 °F 17.1 °F 24.4 °F 89% 29.94 in 4.0 mi WSW 11.5 mph 19.6 mph N/A   Overcast
10:34 AM 27.1 °F 16.9 °F 24.3 °F 89% 29.95 in 2.0 mi WSW 11.5 mph 18.4 mph N/A Snow Light Snow
10:53 AM 27.0 °F 17.3 °F 24.1 °F 89% 29.96 in 1.8 mi WSW 10.4 mph 17.3 mph N/A Snow Light Snow
11:14 AM 27.0 °F 18.0 °F 24.3 °F 90% 29.95 in 1.5 mi WSW 9.2 mph 18.4 mph N/A Snow Light Snow
11:34 AM 27.1 °F 18.2 °F 24.1 °F 88% 29.94 in 2.0 mi WSW 9.2 mph - N/A Snow Light Snow
11:53 AM 27.5 °F 18.6 °F 23.7 °F 86% 29.94 in 4.0 mi WSW 9.2 mph 17.3 mph N/A Snow Light Snow
12:14 PM 27.5 °F 17.4 °F 23.0 °F 83% 29.94 in 7.0 mi SW 11.5 mph 17.3 mph N/A Snow Light Snow
12:33 PM 27.5 °F 18.6 °F 22.5 °F 81% 29.93 in 10.0 mi WSW 9.2 mph 18.4 mph N/A   Overcast
12:54 PM 27.5 °F 18.6 °F 22.1 °F 80% 29.92 in 10.0 mi SW 9.2 mph 18.4 mph N/A   Overcast
1:14 PM 27.0 °F 17.3 °F 22.1 °F 82% 29.94 in 7.0 mi WSW 10.4 mph 17.3 mph N/A   Overcast
1:33 PM 26.6 °F 15.7 °F 21.6 °F 81% 29.95 in 5.0 mi WSW 12.7 mph 20.7 mph N/A Snow Light Snow
1:54 PM 26.1 °F 15.0 °F 21.7 °F 84% 29.96 in 1.5 mi WSW 12.7 mph 24.2 mph N/A Snow Light Snow
2:14 PM 25.7 °F 15.7 °F 22.3 °F 87% 29.97 in 1.5 mi WSW 10.4 mph 18.4 mph N/A Snow Light Snow
2:33 PM 25.5 °F 14.9 °F 22.1 °F 87% 29.98 in 1.0 mi WSW 11.5 mph 17.3 mph N/A Snow Light Snow
2:54 PM 25.7 °F 16.4 °F 21.9 °F 86% 29.98 in 2.0 mi WSW 9.2 mph 17.3 mph N/A Snow Light Snow
3:14 PM 25.2 °F 15.7 °F 20.8 °F 84% 29.99 in 2.0 mi SW 9.2 mph 17.3 mph N/A Snow Light Snow
3:33 PM 24.6 °F 12.2 °F 19.8 °F 82% 29.99 in 2.5 mi WSW 15.0 mph 24.2 mph N/A Snow Light Snow
3:54 PM 24.6 °F 12.2 °F 18.0 °F 76% 29.99 in 5.0 mi WSW 15.0 mph 26.5 mph N/A Snow Light Snow
4:14 PM 24.3 °F 13.9 °F 18.3 °F 78% 30.01 in 7.0 mi WSW 10.4 mph 24.2 mph N/A Snow Light Snow
4:33 PM 23.9 °F 12.9 °F 16.3 °F 73% 30.02 in 10.0 mi WSW 11.5 mph 18.4 mph N/A   Overcast
4:54 PM 23.0 °F 11.7 °F 18.7 °F 84% 30.03 in 2.0 mi WSW 11.5 mph 16.1 mph N/A Snow Light Snow
5:13 PM 23.0 °F 10.1 °F 17.6 °F 80% 30.03 in 4.0 mi SW 15.0 mph 23.0 mph N/A Snow Light Snow
5:34 PM 22.1 °F 11.3 °F 16.3 °F 79% 30.03 in 7.0 mi WSW 10.4 mph 21.9 mph N/A   Overcast
5:54 PM 21.6 °F 8.8 °F 14.9 °F 76% 30.03 in 10.0 mi WSW 13.8 mph 20.7 mph N/A   Overcast
6:13 PM 21.2 °F 8.3 °F 14.5 °F 75% 30.03 in 10.0 mi WSW 13.8 mph 23.0 mph N/A   Overcast
6:34 PM 21.2 °F 10.9 °F 14.7 °F 76% 30.03 in 10.0 mi WSW 9.2 mph 25.3 mph N/A   Overcast
6:54 PM 21.0 °F 9.3 °F 14.7 °F 77% 30.03 in 10.0 mi SW 11.5 mph 20.7 mph N/A   Overcast
7:13 PM 20.8 °F 8.4 °F 14.5 °F 77% 30.03 in 10.0 mi WSW 12.7 mph 19.6 mph N/A   Overcast
7:34 PM 20.7 °F 8.8 °F 14.7 °F 78% 30.04 in 10.0 mi SW 11.5 mph 19.6 mph N/A   Overcast
7:54 PM 20.3 °F 8.3 °F 14.5 °F 78% 30.04 in 10.0 mi SW 11.5 mph 19.6 mph N/A   Overcast
8:13 PM 20.1 °F 9.5 °F 14.4 °F 78% 30.05 in 10.0 mi WSW 9.2 mph 18.4 mph N/A Snow Light Snow
8:34 PM 20.3 °F 9.0 °F 14.4 °F 78% 30.05 in 10.0 mi WSW 10.4 mph 17.3 mph N/A Snow Light Snow
8:54 PM 20.3 °F 9.0 °F 14.4 °F 78% 30.06 in 10.0 mi SW 10.4 mph 20.7 mph N/A Snow Light Snow
9:13 PM 20.3 °F 11.5 °F 14.5 °F 78% 30.06 in 7.0 mi WSW 6.9 mph 16.1 mph N/A Snow Light Snow
9:34 PM 20.3 °F 7.2 °F 12.2 °F 71% 30.06 in 10.0 mi West 13.8 mph 26.5 mph N/A   Mostly Cloudy
9:54 PM 19.8 °F 7.7 °F 12.6 °F 74% 30.06 in 10.0 mi West 11.5 mph 19.6 mph N/A Snow Light Snow
10:13 PM 19.4 °F 5.0 °F 13.5 °F 78% 30.05 in 7.0 mi West 16.1 mph 24.2 mph N/A Snow Light Snow
10:34 PM 19.0 °F 8.2 °F 11.7 °F 73% 30.07 in 10.0 mi West 9.2 mph 18.4 mph N/A   Overcast
10:54 PM 18.5 °F 7.5 °F 9.9 °F 69% 30.06 in 10.0 mi West 9.2 mph 19.6 mph N/A   Mostly Cloudy
11:13 PM 18.5 °F 4.9 °F 10.0 °F 70% 30.07 in 10.0 mi West 13.8 mph 20.7 mph N/A   Mostly Cloudy
11:34 PM 18.0 °F 8.7 °F 9.7 °F 70% 30.06 in 10.0 mi West 6.9 mph 17.3 mph N/A   Mostly Cloudy
11:54 PM 17.6 °F 4.3 °F 8.6 °F 68% 30.07 in 10.0 mi West 12.7 mph 21.9 mph N/A   Scattered Clouds